Wind_Speed
9 8 8 9 9 9 10 10 9 6 4 4 4 5 6 6 5 5 5 5 5 3 3 4 4 4 4 4 5 5 6 7 8 10 10 11 11 12 13 14 16 18 19
9 8 8 8 10 11 10 11 11 11 10 7 6 6 6 7 6 6 5 5 6 5 4 4 6 7 6 6 7 7 7 8 9 10 11 11 12 13 14 15 16 17 17
9 10 9 8 9 10 11 12 12 12 10 10 10 10 8 8 7 7 7 7 7 6 6 7 8 8 8 9 9 10 11 11 11 11 13 12 12 12 13 14 14 14 16
16 12 12 13 12 12 12 12 13 14 11 10 11 12 12 11 11 10 9 9 10 10 10 10 9 9 9 11 11 12 13 13 14 13 13 13 12 12 13 13 13 14 15
21 16 16 15 12 12 10 10 10 11 13 11 11 12 13 13 12 12 12 12 12 11 11 11 11 10 12 13 13 15 16 16 16 16 15 14 13 14 14 14 14 15 16
19 16 16 13 11 11 10 9 8 6 5 5 6 9 11 12 14 14 15 15 14 14 14 14 13 13 14 15 16 17 18 19 19 19 18 16 16 16 16 15 17 18 19
20 19 19 16 15 14 14 11 11 11 12 11 11 10 11 12 12 13 14 15 15 16 16 17 17 18 18 18 19 20 21 21 21 21 21 20 20 20 21 21 21 22 23
25 24 24 21 20 18 17 17 16 16 16 16 16 17 16 15 16 16 16 16 15 16 17 18 19 20 20 20 21 21 22 23 24 23 24 23 25 26 27 27 27 26 26
30 29 27 26 24 23 21 20 20 21 21 20 21 21 21 22 20 19 20 20 20 20 21 21 21 22 24 24 24 25 26 26 26 26 28 28 31 31 31 31 29 29 29
35 34 30 29 28 26 23 23 24 24 25 24 24 24 23 22 23 23 24 25 26 25 25 25 26 26 26 27 28 29 30 31 32 32 33 30 35 34 33 32 32 31 30
39 37 35 32 32 29 28 26 26 25 27 27 26 25 24 23 23 24 27 29 31 31 31 30 30 30 31 31 32 32 32 35 36 37 38 36 34 36 37 35 34 33 31
40 39 37 36 35 33 31 28 27 27 26 27 28 27 25 24 25 26 27 30 33 35 36 36 36 36 35 35 36 36 36 38 39 40 42 40 37 41 40 41 39 36 34
42 48 41 39 38 34 30 28 28 27 27 28 27 28 27 27 27 27 30 31 34 36 39 39 40 41 40 40 40 41 41 41 43 45 47 46 43 43 47 44 45 42 37
41 46 46 43 37 33 29 27 25 26 28 28 28 31 31 32 31 32 29 34 36 38 40 40 42 44 43 45 45 45 43 45 47 50 51 50 47 46 51 49 46 35 34
44 46 48 40 34 31 27 25 24 25 26 28 29 31 31 31 31 32 30 33 37 40 42 43 41 43 45 46 47 48 50 49 51 52 56 56 55 51 54 57 50 35 33
35 34 54 46 32 26 22 24 22 23 25 27 27 27 28 28 28 29 30 31 35 36 40 41 44 44 46 46 47 47 47 47 49 52 56 63 43 44 55 53 46 32 34
34 37 15 28 23 26 26 22 19 22 25 26 28 26 30 30 30 30 34 36 35 37 39 42 44 43 43 44 44 45 47 48 47 49 51 51 44 54 57 44 25 27 32
41 40 51 21 22 25 22 22 20 24 26 28 29 31 33 33 35 34 36 36 35 37 37 38 39 43 45 46 47 50 52 53 51 52 54 47 43 60 39 35 26 28 33
44 46 26 16 20 23 22 20 22 25 26 29 30 34 36 37 38 38 37 36 36 35 35 39 40 43 46 47 47 46 47 51 52 55 53 57 40 36 38 23 26 31 33
39 48 44 22 24 21 22 21 25 28 30 31 33 36 39 40 40 39 41 42 39 38 39 41 43 44 46 45 49 43 38 42 41 38 38 43 34 29 22 24 27 28 33
40 49 12 18 20 19 22 24 28 31 32 32 33 37 41 43 43 44 45 44 41 40 40 41 44 44 43 43 41 41 43 31 37 42 35 32 28 19 17 26 28 28 29
45 45 54 23 17 20 23 27 31 32 31 31 35 39 43 44 47 46 43 44 43 41 42 43 44 44 40 37 37 33 28 36 26 20 18 18 19 20 23 23 26 27 29
40 53 12 21 19 23 26 30 31 31 31 34 37 40 42 44 45 43 46 46 45 44 44 45 44 41 40 32 33 30 29 28 27 23 23 20 22 25 26 27 29 32 33
41 45 35 26 27 27 28 30 30 30 32 35 38 38 39 39 40 41 42 45 43 42 43 43 42 36 37 30 26 32 31 30 24 22 30 30 33 34 33 35 36 36 35
38 38 36 32 31 29 29 31 31 32 34 37 38 37 38 37 36 37 44 43 41 41 42 40 43 50 38 30 29 35 35 33 33 29 27 30 34 38 41 43 41 40 38
36 41 40 35 30 32 33 31 32 33 35 39 39 37 35 34 38 42 46 49 43 42 41 37 44 34 36 33 32 35 36 36 35 35 35 33 34 36 39 40 42 42 42
Wind_Direction
257 286 314 314 309 311 302 293 285 264 262 276 284 276 273 272 276 279 281 278 274 246 232 238 255 279 292 305 322 335 341 344 340 339 340 340 346 348 347 346 350 351 349
251 273 299 316 312 311 318 311 307 292 285 285 283 276 275 275 270 274 279 285 284 277 263 273 285 294 296 298 302 307 314 320 327 330 331 337 341 342 343 347 350 352 347
264 270 265 275 292 293 301 304 302 295 294 289 281 278 275 285 289 291 294 296 293 288 286 288 291 295 298 301 302 303 307 309 312 316 321 328 333 335 337 339 342 341 340
264 263 257 266 273 282 292 309 300 287 287 277 284 287 287 288 292 292 290 294 294 299 301 301 300 298 300 302 302 300 297 299 299 302 305 309 312 313 314 317 323 324 322
268 266 261 262 266 269 280 302 318 294 281 287 295 289 284 283 283 285 288 289 290 294 298 300 299 301 302 300 300 299 295 294 292 293 294 296 293 294 297 301 303 304 305
263 260 260 261 260 262 259 278 299 315 302 296 296 300 291 287 288 286 285 284 284 284 284 284 284 286 291 293 295 295 295 295 295 293 291 289 289 286 286 286 288 293 297
259 255 259 257 260 260 261 265 270 276 284 284 286 291 300 300 291 291 290 287 286 285 284 281 279 280 283 286 289 291 292 292 290 288 288 287 279 278 280 283 286 292 297
254 252 253 255 255 255 261 270 275 277 277 281 285 285 289 292 291 291 285 282 283 285 285 284 285 286 285 285 284 285 286 285 285 284 282 283 280 280 283 286 289 294 299
252 250 251 254 254 259 263 269 273 274 276 278 281 288 291 293 290 287 283 283 280 277 277 278 279 282 284 285 286 284 282 280 279 278 278 280 278 282 286 287 289 293 296
253 255 252 254 257 259 263 269 273 279 286 289 291 293 293 291 291 288 283 276 275 274 273 274 276 279 281 284 284 283 282 282 280 276 277 274 277 280 282 283 287 290 297
254 257 260 261 262 264 268 270 275 281 283 286 289 288 286 284 285 284 283 281 277 277 276 277 278 279 280 282 282 283 284 282 281 280 276 276 275 279 281 282 284 289 292
262 263 262 262 264 266 267 274 277 283 287 288 291 291 290 287 283 282 278 277 276 279 280 280 280 281 281 283 284 283 282 281 279 278 278 274 273 277 280 281 282 282 283
268 258 261 261 261 265 268 269 270 276 281 286 288 287 287 286 287 285 280 275 274 275 278 280 282 282 282 281 281 281 280 281 280 277 277 276 277 277 276 278 277 274 278
254 273 256 256 252 256 261 265 271 272 274 278 282 282 283 282 284 287 284 278 274 273 275 278 281 281 282 282 282 281 279 280 277 276 276 276 277 272 271 272 271 263 272
268 276 237 251 245 254 257 264 263 266 269 270 273 278 284 288 287 287 284 279 271 274 273 273 274 278 281 282 282 283 283 286 288 287 280 284 272 278 278 280 265 262 271
259 251 252 252 248 254 254 254 258 264 270 273 276 281 286 284 282 282 282 277 277 276 275 272 271 277 276 278 281 285 287 288 288 287 288 294 269 288 285 292 253 260 268
259 262 272 225 232 243 252 259 261 267 269 276 281 281 281 283 282 284 281 286 287 287 285 282 283 284 284 285 285 284 284 285 288 288 288 281 275 297 291 267 244 262 272
255 256 257 214 242 251 257 264 266 267 276 281 288 287 284 286 289 289 289 290 290 288 289 287 288 290 288 288 290 290 288 287 283 280 279 272 290 291 275 244 270 278 278
247 246 273 233 237 252 259 263 270 271 274 279 282 283 286 286 288 288 290 290 290 287 290 292 292 292 293 293 290 291 285 287 283 284 275 273 294 273 264 261 268 271 279
248 270 227 227 230 247 264 267 266 269 268 276 283 285 282 283 285 287 287 285 286 289 290 291 293 296 298 302 302 304 313 286 272 276 275 278 276 250 261 285 283 276 272
242 219 259 226 233 249 266 266 265 268 276 281 284 285 284 286 287 287 288 288 287 288 290 294 296 297 302 308 308 313 312 327 281 270 268 253 251 274 291 276 278 281 284
245 250 231 262 255 258 261 266 269 271 276 280 279 280 282 286 288 290 288 288 288 287 289 290 293 299 303 308 304 312 319 321 328 315 316 324 311 291 289 291 293 290 289
238 252 276 275 268 251 256 259 261 266 269 272 275 277 281 283 287 289 289 289 288 287 288 290 293 297 302 302 298 305 305 312 322 314 303 304 297 295 291 292 297 300 297
235 243 261 267 262 259 262 265 262 265 273 277 278 280 283 286 289 293 291 288 289 288 287 291 296 300 301 299 294 296 299 298 299 297 305 306 306 303 302 302 301 300 296
240 246 254 255 259 262 263 265 269 273 275 277 278 284 288 290 288 290 287 286 284 286 285 289 288 287 294 296 292 294 296 296 295 293 290 295 299 299 300 300 300 296 294
233 240 242 248 252 254 259 265 268 273 277 282 289 290 290 287 293 295 288 291 279 284 283 288 295 286 293 292 288 288 294 298 298 298 298 295 291 293 295 294 293 293 292
Height
5906 5908 5909 5910 5911 5912 5912 5913 5913 5913 5912 5913 5912 5912 5912 5912 5912 5912 5912 5912 5912 5911 5910 5910 5910 5910 5909 5908 5907 5906 5905 5904 5904 5902 5900 5899 5898 5897 5896 5896 5895 5895 5895
5906 5906 5909 5909 5909 5910 5911 5912 5912 5913 5913 5913 5913 5912 5912 5912 5912 5912 5911 5911 5911 5911 5911 5911 5910 5910 5909 5908 5907 5906 5905 5904 5903 5902 5901 5900 5899 5898 5897 5896 5896 5895 5894
5905 5905 5906 5908 5908 5908 5909 5910 5911 5911 5912 5913 5913 5913 5912 5912 5911 5911 5912 5912 5911 5911 5911 5911 5910 5910 5909 5908 5907 5907 5906 5905 5904 5903 5902 5900 5899 5898 5897 5896 5895 5894 5893
5903 5903 5904 5906 5907 5907 5908 5908 5908 5909 5910 5911 5912 5912 5911 5911 5911 5911 5911 5911 5911 5911 5910 5910 5909 5909 5908 5907 5907 5906 5906 5905 5903 5901 5900 5899 5898 5897 5895 5894 5894 5893 5892
5900 5901 5902 5903 5905 5905 5906 5906 5906 5906 5908 5909 5910 5911 5910 5910 5910 5910 5910 5909 5909 5909 5909 5909 5908 5908 5907 5906 5906 5905 5904 5903 5901 5899 5898 5898 5896 5895 5894 5893 5891 5890 5890
5896 5897 5899 5902 5902 5903 5903 5904 5905 5905 5906 5906 5908 5908 5908 5908 5908 5908 5907 5907 5907 5907 5906 5906 5906 5906 5905 5904 5904 5903 5902 5901 5900 5899 5897 5895 5894 5893 5891 5890 5889 5888 5887
5892 5895 5897 5898 5899 5900 5900 5901 5901 5902 5903 5904 5905 5906 5906 5906 5906 5906 5906 5905 5905 5904 5904 5903 5903 5902 5902 5902 5901 5900 5899 5898 5897 5896 5895 5894 5891 5890 5888 5887 5886 5885 5885
5889 5890 5892 5894 5895 5896 5897 5898 5899 5900 5900 5901 5902 5902 5902 5903 5903 5903 5903 5902 5903 5902 5902 5901 5900 5900 5899 5898 5897 5896 5894 5894 5893 5893 5892 5892 5889 5887 5886 5884 5884 5883 5882
5884 5886 5888 5889 5890 5892 5893 5895 5895 5896 5897 5898 5898 5898 5898 5899 5899 5900 5899 5899 5899 5898 5897 5897 5896 5895 5895 5895 5895 5893 5891 5889 5889 5888 5887 5889 5885 5884 5883 5881 5880 5879 5878
5878 5879 5883 5884 5885 5888 5890 5891 5891 5892 5892 5892 5893 5893 5894 5894 5895 5895 5895 5894 5893 5892 5892 5891 5892 5891 5890 5890 5890 5889 5888 5886 5884 5883 5881 5883 5879 5879 5877 5877 5875 5873 5873
5872 5875 5877 5879 5879 5883 5884 5884 5886 5886 5886 5887 5887 5888 5888 5889 5889 5890 5890 5890 5890 5889 5887 5887 5886 5886 5886 5885 5884 5884 5883 5882 5880 5879 5877 5878 5876 5873 5873 5871 5870 5869 5868
5866 5869 5870 5871 5873 5875 5876 5878 5879 5879 5879 5880 5881 5881 5883 5884 5884 5885 5884 5884 5884 5884 5883 5882 5881 5880 5880 5880 5878 5878 5876 5875 5874 5873 5870 5869 5871 5866 5866 5865 5865 5863 5861
5863 5858 5863 5864 5865 5867 5870 5871 5870 5870 5871 5872 5874 5875 5876 5877 5878 5878 5878 5879 5878 5877 5876 5876 5875 5874 5873 5873 5872 5871 5869 5868 5867 5864 5861 5861 5863 5863 5858 5858 5856 5856 5855
5832 5848 5852 5851 5852 5858 5864 5865 5866 5867 5865 5865 5866 5867 5868 5869 5871 5871 5871 5870 5870 5869 5868 5869 5868 5868 5867 5866 5865 5863 5862 5859 5857 5854 5850 5852 5854 5853 5849 5850 5849 5847 5846
5849 5845 5831 5850 5837 5847 5855 5856 5859 5862 5862 5859 5859 5860 5861 5862 5864 5863 5862 5862 5863 5860 5861 5860 5860 5860 5860 5857 5856 5854 5851 5851 5849 5845 5843 5844 5843 5844 5842 5840 5839 5840 5839
5844 5846 5820 5836 5834 5839 5849 5848 5849 5854 5855 5853 5853 5853 5854 5855 5855 5856 5854 5853 5851 5853 5851 5853 5850 5850 5848 5848 5845 5843 5841 5839 5838 5837 5837 5832 5835 5834 5827 5825 5826 5829 5831
5830 5829 5812 5820 5827 5837 5842 5843 5840 5844 5847 5847 5846 5849 5848 5848 5847 5848 5847 5846 5847 5847 5845 5843 5843 5842 5840 5839 5837 5834 5831 5830 5830 5829 5826 5824 5823 5820 5816 5814 5816 5821 5821
5816 5823 5823 5819 5825 5836 5840 5844 5836 5839 5840 5841 5841 5841 5841 5842 5841 5842 5841 5841 5841 5839 5839 5838 5836 5833 5832 5830 5828 5825 5821 5819 5819 5818 5817 5814 5816 5812 5808 5805 5808 5812 5813
5810 5819 5777 5807 5822 5833 5836 5836 5834 5835 5835 5835 5833 5834 5835 5837 5836 5835 5835 5835 5834 5833 5832 5830 5831 5828 5825 5824 5821 5816 5810 5808 5808 5806 5803 5803 5804 5800 5801 5803 5805 5808 5806
5813 5804 5798 5792 5805 5821 5826 5829 5830 5831 5830 5829 5828 5829 5830 5830 5829 5830 5830 5829 5828 5827 5825 5823 5821 5819 5817 5815 5811 5807 5800 5799 5799 5795 5794 5795 5797 5796 5796 5800 5800 5801 5798
5801 5795 5782 5793 5809 5819 5824 5826 5825 5827 5825 5822 5823 5824 5823 5824 5823 5823 5822 5822 5820 5819 5817 5816 5813 5811 5810 5807 5805 5802 5797 5792 5790 5790 5790 5790 5790 5790 5792 5795 5793 5792 5790
5791 5794 5797 5797 5800 5810 5818 5821 5819 5821 5820 5818 5817 5817 5816 5817 5814 5815 5814 5812 5811 5810 5809 5808 5807 5805 5802 5801 5798 5794 5791 5791 5788 5785 5782 5783 5785 5787 5787 5786 5786 5785 5783
5796 5763 5751 5788 5788 5806 5813 5817 5817 5817 5813 5809 5810 5811 5811 5810 5808 5807 5807 5805 5804 5802 5801 5801 5800 5798 5795 5795 5791 5787 5785 5783 5783 5781 5781 5781 5781 5782 5781 5779 5777 5774 5772
5790 5791 5786 5783 5795 5804 5809 5810 5809 5807 5802 5803 5805 5806 5805 5804 5802 5801 5799 5796 5795 5794 5793 5793 5792 5791 5789 5787 5784 5783 5781 5781 5778 5776 5772 5772 5772 5771 5768 5766 5766 5763 5760
5783 5785 5786 5789 5795 5798 5800 5800 5800 5796 5799 5797 5799 5800 5798 5797 5794 5792 5789 5787 5786 5787 5786 5786 5785 5785 5783 5780 5779 5777 5776 5774 5773 5769 5771 5769 5764 5762 5760 5757 5754 5753 5750
5779 5780 5785 5789 5791 5791 5791 5793 5793 5795 5794 5792 5794 5792 5791 5790 5787 5784 5781 5778 5778 5780 5780 5779 5778 5777 5776 5774 5773 5771 5769 5765 5761 5760 5759 5760 5760 5757 5750 5748 5746 5744 5742